Location: Unspecified
(0.0000°N, 0.0000°E)
Time: 13:25:01
(UTC+00:00)

deb OV3-4 - Pass Details

Date: 13 June 2025
Orbit: 581 x 4212 km, 40.6° (Epoch: 19 July)

Event Time Altitude Azimuth Distance (km) Brightness Sun altitude
Rises 19:13:37 0° 327° (NNW) 7,956 ? -16.8°
Reaches altitude 10° 19:20:42 10° 338° (NNW) 7,238 ? -18.4°
Maximum altitude 19:41:15 28° 31° (NNE) 5,770 ? -23.1°
Enters shadow 19:55:20 15° 76° (ENE) 5,963 ? -26.2°
